Location: Martin
(32.0982°N, 93.2193°W)
Time: 03:14:20
(UTC+00:00)

ARIANE 6 FM1 Upper Stage - Pass Details

Date: 20 September 2024
Orbit: 563 x 594 km, 62.0° (Epoch: 11 October)

Event Time Altitude Azimuth Distance (km) Brightness Sun altitude
Rises 10:34:16 0° 333° (NNW) 2,839 6.1 -18.9°
Reaches altitude 10° 10:36:35 10° 338° (NNW) 1,936 5.3 -18.4°
Maximum altitude 10:40:52 53° 56° (ENE) 732 3.5 -17.5°
Drops below altitude 10° 10:45:09 10° 134° (SE) 1,926 5.8 -16.6°
Sets 10:47:26 0° 139° (SE) 2,823 6.7 -16.1°
